This is the latest recevied weather packets stored in our database for station/object ON7XX-13. If no packets are shown the sender has not sent any weather packets the latest 10 day(s).
| Time | Temp. | Humidity | Pressure | Rain* | Wind** | Luminosity | Snow |
|---|---|---|---|---|---|---|---|
| 1777248384 | 10° C | 68% | 1025.1 hPa | - | - | - | - |
| 1777247770 | 10° C | 71% | 1025.2 hPa | - | - | - | - |
| 1777247156 | 10° C | 68% | 1025.2 hPa | - | - | - | - |
| 1777246542 | 10.56° C | 66% | 1025.1 hPa | - | - | - | - |
| 1777245927 | 11.11° C | 65% | 1025.1 hPa | - | - | - | - |
| 1777245313 | 11.11° C | 67% | 1025.3 hPa | - | - | - | - |
| 1777244699 | 11.11° C | 66% | 1025.4 hPa | - | - | - | - |
| 1777244085 | 11.11° C | 65% | 1025.3 hPa | - | - | - | - |
| 1777243470 | 11.11° C | 64% | 1025.4 hPa | - | - | - | - |
| 1777242856 | 11.67° C | 65% | 1025.4 hPa | - | - | - | - |
| 1777242242 | 11.67° C | 63% | 1025.4 hPa | - | - | - | - |
| 1777241627 | 11.67° C | 64% | 1025.4 hPa | - | - | - | - |
| 1777241014 | 12.22° C | 62% | 1025.4 hPa | - | - | - | - |
| 1777240399 | 12.22° C | 62% | 1025.3 hPa | - | - | - | - |
| 1777239785 | 12.22° C | 61% | 1025.2 hPa | - | - | - | - |
| 1777239171 | 12.78° C | 60% | 1025.2 hPa | - | - | - | - |
| 1777238556 | 12.78° C | 59% | 1025.2 hPa | - | - | - | - |
| 1777237942 | 13.33° C | 59% | 1025.2 hPa | - | - | - | - |
| 1777237328 | 13.33° C | 58% | 1025.3 hPa | - | - | - | - |
| 1777236714 | 13.89° C | 57% | 1025.2 hPa | - | - | - | - |
| 1777236100 | 13.89° C | 56% | 1025.3 hPa | - | - | - | - |
| 1777235485 | 13.89° C | 56% | 1025.2 hPa | - | - | - | - |
| 1777234871 | 14.44° C | 55% | 1025.1 hPa | - | - | - | - |
| 1777234257 | 14.44° C | 54% | 1025.1 hPa | - | - | - | - |
| 1777233643 | 15° C | 54% | 1025 hPa | - | - | - | - |
* Rain since midnight (hover to see other rain measurements)
** Current wind speed in m/s (hover to see current wind gust speed)